Retour au catalogue

HULIANWANG DIGUI-103

ActifCommunicationsLEO
NORAD 66419·PAYLOAD·🇨🇳 China

Lancé Nov 10, 2025 depuis Wenchang Space Launch Site

Loading…

Prochains Passages (prochaines 24 heures)

TLE

FraisSource: Space-Track

Époque: Sep 14, 2026, 13:38 UTC

1 66419U 25258H   26257.56864734 -.00000080  00000-0  95356-4 0  9994
2 66419  50.0027 334.7482 0000279 126.3342 233.7556 13.29329746 41622

Suivez HULIANWANG DIGUI-103 en temps réel avec AllMySat

Download on the App Store